• în Republica Moldova
  • Lista ţărilor
  • Pe 7 zile
  • Temperatura apei
  • Hartă satelitară
  • Meteo pe hartă
  • Widget-uri
  • user-avatar
    Intrare

    Meteo pe oră la Saurimo

    Astăzi, 16 August, Miercuri

    Timp Temperatura Precipitaţii Vânt Presiune Umiditate
    00:00 +20°C° 0 mm 2 m/s 670 mmHg 27%
    01:00 +19°C° 0 mm 2 m/s 670 mmHg 30%
    02:00 +19°C° 0 mm 2 m/s 670 mmHg 31%
    03:00 +18°C° 0 mm 2 m/s 670 mmHg 32%
    04:00 +18°C° 0 mm 2 m/s 670 mmHg 33%
    05:00 +19°C° 0 mm 2 m/s 670 mmHg 31%
    06:00 +19°C° 0 mm 2 m/s 670 mmHg 29%
    07:00 +21°C° 0 mm 2 m/s 671 mmHg 27%
    08:00 +26°C° 0 mm 2 m/s 672 mmHg 22%
    09:00 +30°C° 0 mm 2 m/s 672 mmHg 17%
    10:00 +35°C° 0 mm 2 m/s 673 mmHg 12%
    11:00 +37°C° 0 mm 2 m/s 672 mmHg 10%
    12:00 +39°C° 0 mm 1 m/s 672 mmHg 8%
    13:00 +41°C° 0 mm 1 m/s 672 mmHg 6%
    14:00 +40°C° 0 mm 1 m/s 671 mmHg 6%
    15:00 +39°C° 0 mm 1 m/s 670 mmHg 7%
    16:00 +36°C° 0 mm 1 m/s 669 mmHg 7%
    17:00 +33°C° 0 mm 1 m/s 669 mmHg 8%
    18:00 +30°C° 0 mm 1 m/s 669 mmHg 10%
    19:00 +27°C° 0 mm 1 m/s 668 mmHg 11%
    20:00 +26°C° 0 mm 1 m/s 668 mmHg 12%
    21:00 +25°C° 0 mm 1 m/s 669 mmHg 13%
    22:00 +24°C° 0 mm 1 m/s 669 mmHg 14%
    23:00 +24°C° 0 mm 1 m/s 669 mmHg 17%

    Mâine, 17 August, Joi

    Timp Temperatura Precipitaţii Vânt Presiune Umiditate
    00:00 +23°C° 0 mm 1 m/s 668 mmHg 19%
    01:00 +22°C° 0 mm 1 m/s 668 mmHg 21%
    02:00 +21°C° 0 mm 1 m/s 668 mmHg 22%
    03:00 +20°C° 0 mm 1 m/s 668 mmHg 24%
    04:00 +20°C° 0 mm 1 m/s 667 mmHg 25%
    05:00 +21°C° 0 mm 1 m/s 668 mmHg 25%
    06:00 +21°C° 0 mm 1 m/s 668 mmHg 24%
    07:00 +22°C° 0 mm 1 m/s 669 mmHg 23%
    08:00 +26°C° 0 mm 1 m/s 670 mmHg 20%
    09:00 +30°C° 0 mm 1 m/s 671 mmHg 16%
    10:00 +35°C° 0 mm 2 m/s 671 mmHg 12%
    11:00 +37°C° 0 mm 2 m/s 671 mmHg 11%
    12:00 +39°C° 0 mm 1 m/s 671 mmHg 9%
    13:00 +41°C° 0 mm 1 m/s 670 mmHg 8%
    14:00 +40°C° 0 mm 1 m/s 669 mmHg 8%
    15:00 +39°C° 0 mm 1 m/s 669 mmHg 8%
    16:00 +37°C° 0 mm 1 m/s 668 mmHg 9%
    17:00 +34°C° 0 mm 1 m/s 668 mmHg 11%
    18:00 +31°C° 0 mm 1 m/s 668 mmHg 13%
    19:00 +28°C° 0 mm 1 m/s 668 mmHg 15%
    20:00 +28°C° 0 mm 1 m/s 668 mmHg 16%
    21:00 +27°C° 0 mm 1 m/s 668 mmHg 17%
    22:00 +26°C° 0 mm 1 m/s 669 mmHg 18%
    23:00 +25°C° 0 mm 1 m/s 668 mmHg 20%

    Poimâine, 18 August, Vineri

    Timp Temperatura Precipitaţii Vânt Presiune Umiditate
    00:00 +24°C° 0 mm 1 m/s 668 mmHg 22%
    01:00 +24°C° 0 mm 1 m/s 668 mmHg 24%
    02:00 +23°C° 0 mm 1 m/s 668 mmHg 26%
    03:00 +22°C° 0 mm 1 m/s 668 mmHg 29%
    04:00 +20°C° 0 mm 0 m/s 667 mmHg 31%
    05:00 +23°C° 0 mm 1 m/s 668 mmHg 31%
    06:00 +24°C° 0 mm 1 m/s 669 mmHg 30%
    07:00 +25°C° 0 mm 2 m/s 670 mmHg 29%
    08:00 +28°C° 0 mm 2 m/s 671 mmHg 24%
    09:00 +31°C° 0 mm 2 m/s 671 mmHg 19%
    10:00 +35°C° 0 mm 2 m/s 672 mmHg 14%
    11:00 +38°C° 0 mm 2 m/s 672 mmHg 13%
    12:00 +40°C° 0 mm 1 m/s 671 mmHg 11%
    13:00 +42°C° 0 mm 1 m/s 671 mmHg 10%
    14:00 +41°C° 0 mm 1 m/s 670 mmHg 10%
    15:00 +40°C° 0 mm 1 m/s 669 mmHg 10%
    16:00 +36°C° 0 mm 0 m/s 669 mmHg 11%
    17:00 +35°C° 0 mm 1 m/s 669 mmHg 13%
    18:00 +33°C° 0 mm 1 m/s 669 mmHg 16%
    19:00 +30°C° 0 mm 1 m/s 669 mmHg 18%
    20:00 +30°C° 0 mm 1 m/s 669 mmHg 20%
    21:00 +30°C° 0 mm 1 m/s 670 mmHg 22%
    22:00 +29°C° 0 mm 1 m/s 670 mmHg 23%
    23:00 +29°C° 0 mm 1 m/s 670 mmHg 25%

    19 August, Sâmbătă

    Timp Temperatura Precipitaţii Vânt Presiune Umiditate
    00:00 +28°C° 0 mm 1 m/s 670 mmHg 27%
    01:00 +28°C° 0 mm 1 m/s 670 mmHg 29%
    02:00 +28°C° 0 mm 1 m/s 670 mmHg 30%
    03:00 +28°C° 0 mm 1 m/s 670 mmHg 31%
    04:00 +28°C° 0 mm 2 m/s 670 mmHg 32%
    05:00 +27°C° 0 mm 2 m/s 671 mmHg 29%
    06:00 +27°C° 0 mm 2 m/s 671 mmHg 27%
    07:00 +27°C° 0 mm 2 m/s 672 mmHg 25%
    08:00 +30°C° 0 mm 2 m/s 672 mmHg 22%
    09:00 +32°C° 0 mm 2 m/s 673 mmHg 19%
    10:00 +35°C° 0 mm 1 m/s 674 mmHg 16%
    11:00 +36°C° 0 mm 1 m/s 673 mmHg 15%
    12:00 +39°C° 0 mm 1 m/s 672 mmHg 14%
    13:00 +40°C° 0 mm 1 m/s 672 mmHg 14%
    14:00 +39°C° 0 mm 2 m/s 671 mmHg 15%
    15:00 +38°C° 0 mm 2 m/s 670 mmHg 16%
    16:00 +37°C° 0 mm 2 m/s 670 mmHg 17%
    17:00 +34°C° 0 mm 2 m/s 670 mmHg 21%
    18:00 +31°C° 0 mm 2 m/s 670 mmHg 25%
    19:00 +29°C° 0 mm 1 m/s 670 mmHg 29%
    20:00 +28°C° 0 mm 1 m/s 670 mmHg 33%
    21:00 +27°C° 0 mm 1 m/s 670 mmHg 36%
    22:00 +26°C° 0 mm 1 m/s 671 mmHg 39%
    23:00 +25°C° 0 mm 1 m/s 670 mmHg 42%

    20 August, Duminică

    Timp Temperatura Precipitaţii Vânt Presiune Umiditate
    00:00 +25°C° 0 mm 1 m/s 670 mmHg 44%
    01:00 +24°C° 0 mm 1 m/s 670 mmHg 46%
    02:00 +24°C° 0 mm 1 m/s 670 mmHg 51%
    03:00 +23°C° 0 mm 2 m/s 670 mmHg 55%
    04:00 +23°C° 0 mm 2 m/s 670 mmHg 60%
    05:00 +23°C° 0 mm 2 m/s 671 mmHg 61%
    06:00 +24°C° 0 mm 2 m/s 671 mmHg 62%
    07:00 +24°C° 0 mm 2 m/s 672 mmHg 63%
    08:00 +27°C° 0 mm 2 m/s 673 mmHg 54%
    09:00 +30°C° 0 mm 1 m/s 673 mmHg 45%
    10:00 +32°C° 0 mm 1 m/s 674 mmHg 36%
    11:00 +35°C° 0 mm 2 m/s 673 mmHg 32%
    12:00 +36°C° 0 mm 2 m/s 673 mmHg 28%
    13:00 +37°C° 0 mm 2 m/s 672 mmHg 24%
    14:00 +36°C° 0 mm 2 m/s 671 mmHg 24%
    15:00 +35°C° 0 mm 2 m/s 671 mmHg 25%
    16:00 +34°C° 0 mm 2 m/s 671 mmHg 26%
    17:00 +32°C° 0 mm 2 m/s 671 mmHg 29%
    18:00 +30°C° 0 mm 1 m/s 671 mmHg 32%
    19:00 +28°C° 0 mm 1 m/s 671 mmHg 35%
    20:00 +28°C° 0 mm 1 m/s 671 mmHg 37%
    21:00 +27°C° 0 mm 1 m/s 671 mmHg 39%
    22:00 +24°C° 0 mm 0 m/s 671 mmHg 41%
    23:00 +25°C° 0 mm 1 m/s 671 mmHg 43%

    21 August, Luni

    Timp Temperatura Precipitaţii Vânt Presiune Umiditate
    00:00 +25°C° 0 mm 1 m/s 670 mmHg 44%
    01:00 +24°C° 0 mm 1 m/s 670 mmHg 46%
    02:00 +24°C° 0 mm 1 m/s 669 mmHg 47%
    03:00 +23°C° 0 mm 1 m/s 669 mmHg 49%
    04:00 +23°C° 0 mm 1 m/s 669 mmHg 50%
    05:00 +24°C° 0 mm 1 m/s 670 mmHg 47%
    06:00 +24°C° 0 mm 1 m/s 670 mmHg 44%
    07:00 +25°C° 0 mm 1 m/s 671 mmHg 41%
    08:00 +28°C° 0 mm 2 m/s 672 mmHg 33%
    09:00 +33°C° 0 mm 3 m/s 672 mmHg 25%
    10:00 +36°C° 0 mm 4 m/s 673 mmHg 17%
    11:00 +37°C° 0 mm 4 m/s 672 mmHg 16%
    12:00 +38°C° 0 mm 4 m/s 672 mmHg 14%
    13:00 +39°C° 0 mm 3 m/s 671 mmHg 13%
    14:00 +39°C° 0 mm 3 m/s 670 mmHg 13%
    15:00 +39°C° 0 mm 3 m/s 670 mmHg 12%
    16:00 +38°C° 0 mm 3 m/s 669 mmHg 12%
    17:00 +36°C° 0 mm 2 m/s 669 mmHg 14%
    18:00 +34°C° 0 mm 2 m/s 669 mmHg 16%
    19:00 +30°C° 0 mm 1 m/s 669 mmHg 18%
    20:00 +30°C° 0 mm 1 m/s 670 mmHg 19%
    21:00 +29°C° 0 mm 1 m/s 670 mmHg 20%
    22:00 +29°C° 0 mm 1 m/s 670 mmHg 21%
    23:00 +28°C° 0 mm 1 m/s 670 mmHg 22%
    Arată mai mult